Location: Street
(51.1247°N, 2.7429°W)
Time: 04:16:26
(UTC+00:00)

Transit 2A Rocket - Pass Details

Date: 29 November 2020
Orbit: 592 x 911 km, 66.7° (Epoch: 16 January)

Event Time Altitude Azimuth Distance (km) Brightness Sun altitude
Exits shadow 05:19:39 19° 346° (NNW) 1,823 6.7 -22.7°
Drops below altitude 10° 05:22:58 10° 25° (NNE) 2,299 7.7 -22.2°
Sets 05:25:58 0° 43° (NE) 3,159 8.7 -21.8°
